Home   Weather   Førde   Past weeks
Flag for Norway

Past Weather in Førde, Norway — Yesterday and Last 2 Weeks

Now
45 °F

Scattered clouds.


Feels Like: 40 °F
Forecast: 47 / 37 °F
Wind: 9 mph from Northwest

Location: Forde / Bringeland

Current Time: Sep 18, 2019 at 7:55:58 pm

Latest Report: Sep 18, 2019 at 7:20 pm


Visibility: N/A

Pressure: 30.24 "Hg

Humidity: 71%

Dew Point: 36 °F

Location of FørdeLocation

Past Weather in Førde — Graph

°F

Førde Temperature Yesterday

Maximum temperature yesterday: 46 °F (at 4:50 pm)
Minimum temperature yesterday: 34 °F (at 7:20 am)
Average temperature yesterday: 43 °F

High & Low Weather Summary for the Past Weeks

 TemperatureHumidityPressure
High64 °F (Sep 10, 5:20 pm)100% (Sep 4, 7:50 pm)30.24 "Hg (Sep 4, 7:50 pm)
Low34 °F (Sep 17, 7:20 am)44% (Sep 7, 2:50 pm)29.50 "Hg (Sep 11, 11:20 am)
Average49 °F81%29.86 "Hg
* Reported Sep 3 7:20 pm — Sep 18 6:20 pm, Førde. Weather by CustomWeather, © 2019

Note: Actual official high and low records may vary slightly from our data, if they occured in-between our weather recording intervals... More about our weather records

Advertising

Førde Weather History for the Previous 24 Hours

Scroll right to see more
 ConditionsComfort  
Time TempWeatherWind HumidityBarometerVisibility
6:20 pm
Wed, Sep 18
45 °FScattered showers. Scattered clouds.3 mph81%30.24 "HgN/A
4:50 pm48 °FScattered showers. Broken clouds.9 mph62%30.21 "HgN/A
4:20 pm46 °FBroken clouds.3 mph66%30.21 "HgN/A
2:50 pm46 °FScattered showers. Broken clouds.10 mph71%30.21 "HgN/A
2:20 pm46 °FScattered clouds.10 mph71%30.18 "HgN/A
1:50 pm46 °FScattered clouds.12 mph71%30.18 "HgN/A
1:20 pm45 °FSprinkles. Partly sunny.13 mph81%30.18 "HgN/A
12:50 pm48 °FScattered showers. Broken clouds.8 mph71%30.18 "HgN/A
12:20 pm43 °FScattered clouds.3 mph81%30.18 "HgN/A
11:50 am45 °FSprinkles. Scattered clouds.9 mph81%30.18 "HgN/A
11:20 am45 °FSprinkles. Partly sunny.7 mph76%30.15 "HgN/A
10:50 am46 °FPartly sunny.2 mph82%30.15 "HgN/A
10:20 am46 °FCool.2 mph87%30.15 "HgN/A
9:50 am45 °FQuite cool.2 mph87%30.15 "HgN/A
9:20 am41 °FQuite cool.3 mph93%30.12 "HgN/A
8:20 am41 °FQuite cool.3 mph93%30.12 "HgN/A
7:50 am39 °FScattered clouds.2 mph100%30.12 "HgN/A
7:20 am39 °FPassing clouds.2 mph93%30.09 "HgN/A
6:50 am39 °FPassing clouds.2 mph100%30.09 "HgN/A
6:20 am41 °FSprinkles. Passing clouds.1 mph93%30.09 "HgN/A
5:50 am39 °FRain. Passing clouds.1 mph100%30.09 "Hg5 mi
10:50 pm
Tue, Sep 17
43 °FPassing clouds.7 mph76%30.04 "HgN/A
10:20 pm43 °FPassing clouds.7 mph76%30.04 "HgN/A
9:20 pm45 °FPartly cloudy.13 mph76%30.01 "HgN/A
8:20 pm46 °FScattered showers. Partly cloudy.14 mph76%29.98 "HgN/A
7:50 pm46 °FBroken clouds.13 mph76%29.98 "HgN/A
7:20 pm46 °FScattered showers. Broken clouds.14 mph76%29.98 "HgN/A
Weather by CustomWeather, © 2019

See weather overview